STARLINK-36404, 67664

Orbit data source: Space-Track

STARLINK-36404, 67664 is a payload satellite owned by SpaceX/Seattle (US) in SSO that was launched on Mon, 02 Feb 2026 UTC via an FALCON 9 launch vehicle from the Air Force Western Test Range (AFWTR). Payload-class satellites include a variety of spacecraft equipped with specific instruments for various scientific and technological missions. These include communications satellites like Starlink; space stations such as the ISS; scientific satellites like the Hubble; Earth observation satellites from companies like Planet Labs, Umbra, and HawkEye 360; GPS; miniature CubeSats for education and research; and military/defense satellites.

Loading next visibility...
Identifier
67664, 2026-022S
Orbit
SSO
Country
Flag of USUS
Related business
Manufacturer
SpaceX/Seattle
Mission
Operational spacecraft
Bus & Motor
STARLINK V2MO, Unknown motor
Mass
575 kg wet, ~530 kg dry
Launch date (UTC)
2026-02-02 (2 months ago)
Launch vehicle
FALCON 9
Launch site
Air Force Western Test Range (AFWTR)
Object type
Payload
Rocket body
Debris
Shape & HBR
Unknown shape, 17.7 m
Radar Cross Section
RCS unknown

Expand to show TLE details & history
Last TLE update: 13 hours ago

TLE from 13 hours ago
0 STARLINK-36404
1 67664U 26022S   26095.08264667  .00017078  00000-0  53003-3 0  9999
2 67664  97.2859 128.9905 0002458 123.1127 237.0351 15.33449118  9617
Epoch: 2026-04-05T01:59Z
TLE epoch observation values (Epoch: 2026-04-05T01:59:00.672Z)
Latitude
-0.0001°
Longitude
-94.15546°
Altitude
469.559 km
Speed
7.631 km/s
True Right ascension
08h 35m 57s
True Declination
0° 00' 00"
Sunlit
Object was in full shadow at epoch
Visualization orbit readout
Latitude
Unknown
Longitude
Unknown
Altitude
Unknown
Speed
Unknown
Apparent Right ascension
Unknown
Apparent Declination
Unknown
Sunlit
N/A
Visualization observer readout
Local Sidereal Time
20:59:48
Azimuth
Unknown
Elevation
Unknown
Doppler factor
Unknown
Orbital elements
Apogee altitude
464.155 km
Perigee altitude
460.792 km
Semi-major axis
6,840.611 km
Eccentricity
0.00025
Inclination
97.2859°
RAAN
128.9905°
Arg. of periapsis
123.1127°
True anomaly
237.01147°
Mean anomaly
237.0351°
Eccentric anomaly
237.02329°
Mean motion
3.8362 °/min
Orbital period
93.84 mins
BSTAR
0.00053003
Loading maneuver chart data...
Computing Atmospheric mass density...
Loading historical data...
Loading historical data...
Loading historical data...
Loading historical data...
Loading historical data...
Loading historical data...
Loading historical data...

Documentation

Showing up to 5 results
|